Weather History for Billings, MT

Change the Weather History Date:

Monday, July 8, 2013

  Actual Average Record
Temperature  
Mean Temperature 77 °F 72 °F  
Max Temperature 92 °F 85 °F 103 °F (2002)
Min Temperature 61 °F 58 °F 46 °F (1958)
Degree Days  
Heating Degree Days 0 1  
Month to date heating degree days 0 8  
Since 1 June heating degree days 73 104  
Since 1 July heating degree days 0 8  
Cooling Degree Days 12 7  
Month to date cooling degree days 89 52  
Year to date cooling degree days 212 154  
Since 1 June cooling degree days 185 137  
Growing Degree Days 26 (Base 50)    
Moisture  
Dew Point 56 °F    
Average Humidity 62    
Maximum Humidity 87    
Minimum Humidity 36    
Precipitation  
Precipitation 0.39 in 0.05 in 0.41 in (1942)
Month to date precipitation 0.50 0.39  
Year to date precipitation 7.82 8.37  
Snow  
Snow 0.00 in 0.00 in T in (2004)
Month to date snowfall 0.0 0.0  
Since 1 June snowfall 0.0 0.0  
Since 1 July snowfall 0.0 0.0  
Snow Depth 0.00 in    
Sea Level Pressure  
Sea Level Pressure 29.88 in    
Wind  
Wind Speed 8 mph (NE)    
Max Wind Speed 44 mph    
Max Gust Speed 53 mph    
Visibility 10 miles    
Events Rain , Thunderstorm    
T = Trace of Precipitation, MM = Missing Value Source: NWS Daily Summary

Daily Weather History Graph

Daily Weather History Graph

Search for Another Location

Airport:

Trip Planner

Search our weather history database for the weather conditions in past years. The results will help you decide how hot, cold, wet, or windy it might be!

Date:

Astronomy

Jul. 08, 2013 Rise Set
Actual Time 5:33 AM MDT 9:05 PM MDT
Civil Twilight 4:55 AM MDT 9:42 PM MDT
Nautical Twilight 4:05 AM MDT 10:32 PM MDT
Astronomical Twilight 3:00 AM MDT 11:36 PM MDT
Moon 6:10 AM MDT (7/8) 9:02 PM MDT (7/8)
Length of Visible Light 16h 46m
Length of Day
15h 32m
New Moon, 0% of the Moon is Illuminated
Jul 8
New Moon
Jul 15
First Quarter
Jul 22
Full
Jul 29
Last Quarter
Aug 6
New

Hourly Weather History & Observations

Time (MDT) Temp. Heat Index Dew Point Humidity Pressure Visibility Wind Dir Wind Speed Gust Speed Precip Events Conditions
12:53 AM 68.0 °F - 52.0 °F 56% 29.87 in 10.0 mi NE 6.9 mph - N/A   Clear
1:53 AM 66.0 °F - 52.0 °F 60% 29.87 in 10.0 mi ENE 4.6 mph - N/A   Clear
2:53 AM 62.1 °F - 52.0 °F 70% 29.86 in 10.0 mi Calm Calm - N/A   Clear
3:53 AM 64.9 °F - 53.1 °F 65% 29.86 in 10.0 mi SSE 4.6 mph - N/A   Clear
4:53 AM 63.0 °F - 53.1 °F 70% 29.87 in 10.0 mi Calm Calm - N/A   Partly Cloudy
5:53 AM 61.0 °F - 54.0 °F 78% 29.87 in 10.0 mi Calm Calm - N/A   Partly Cloudy
6:53 AM 64.0 °F - 54.0 °F 70% 29.88 in 10.0 mi Calm Calm - N/A   Partly Cloudy
7:53 AM 66.9 °F - 54.0 °F 63% 29.91 in 10.0 mi North 6.9 mph - N/A   Partly Cloudy
8:53 AM 72.0 °F - 55.0 °F 55% 29.91 in 10.0 mi NNE 3.5 mph - N/A   Partly Cloudy
9:53 AM 73.9 °F - 55.9 °F 53% 29.90 in 10.0 mi SE 3.5 mph - N/A   Partly Cloudy
10:53 AM 75.9 °F - 54.0 °F 46% 29.89 in 10.0 mi Variable 4.6 mph - N/A   Partly Cloudy
11:53 AM 80.1 °F 80.0 °F 54.0 °F 40% 29.87 in 10.0 mi Variable 5.8 mph - N/A   Partly Cloudy
12:53 PM 82.9 °F 81.9 °F 54.0 °F 37% 29.84 in 10.0 mi Calm Calm - N/A   Partly Cloudy
1:53 PM 84.9 °F 83.6 °F 55.0 °F 36% 29.81 in 10.0 mi Variable 3.5 mph - N/A   Partly Cloudy
2:53 PM 88.0 °F 86.7 °F 57.0 °F 35% 29.78 in 10.0 mi East 6.9 mph - N/A   Partly Cloudy
3:53 PM 90.0 °F 87.7 °F 54.0 °F 29% 29.74 in 10.0 mi SE 9.2 mph - N/A   Scattered Clouds
4:26 PM 90.0 °F 87.7 °F 54.0 °F 29% 29.83 in 10.0 mi ESE 12.7 mph 20.7 mph N/A Thunderstorm Thunderstorm
4:53 PM 66.0 °F - 57.0 °F 73% 29.91 in 6.0 mi NW 32.2 mph 52.9 mph 0.00 in Rain , Thunderstorm Thunderstorms and Rain
5:00 PM 63.0 °F - 59.0 °F 87% 29.99 in 6.0 mi NW 18.4 mph 41.4 mph 0.03 in Rain , Thunderstorm Heavy Thunderstorms and Rain
5:20 PM 63.0 °F - 60.1 °F 90% 29.95 in 7.0 mi NNE 19.6 mph 25.3 mph 0.38 in Rain , Thunderstorm Thunderstorms and Rain
5:40 PM 64.0 °F - 59.0 °F 84% 29.93 in 10.0 mi NE 17.3 mph - 0.38 in   Mostly Cloudy
5:53 PM 64.9 °F - 59.0 °F 81% 29.87 in 10.0 mi NE 13.8 mph - 0.38 in   Mostly Cloudy
6:53 PM 66.0 °F - 59.0 °F 78% 29.90 in 10.0 mi South 10.4 mph - 0.01 in   Mostly Cloudy
7:53 PM 68.0 °F - 57.9 °F 70% 29.91 in 10.0 mi WSW 5.8 mph - N/A   Mostly Cloudy
8:53 PM 68.0 °F - 59.0 °F 73% 29.89 in 10.0 mi NNW 4.6 mph - N/A   Scattered Clouds
9:53 PM 66.0 °F - 61.0 °F 84% 29.93 in 10.0 mi Variable 3.5 mph - N/A   Scattered Clouds
10:53 PM 64.9 °F - 61.0 °F 87% 29.95 in 10.0 mi NW 6.9 mph - N/A   Scattered Clouds
11:53 PM 64.0 °F - 60.1 °F 87% 29.99 in 10.0 mi North 8.1 mph - N/A   Scattered Clouds